GW0320 Weather Reports


time (UTC)temp
F
wind
direction
speed
knots
gust
knots
rain 1hr
in
rain 24hr
in
rain mn
in
humidity
%
barometer
mb
20260906175138 94 169 0.0 0.0 0.00 0.00 0.00 59 1016.4
20260906174636 94 235 0.0 0.0 0.00 0.00 0.00 60 1016.1
20260906174131 94 275 0.0 0.0 0.00 0.00 0.00 58 1016.2
20260906173627 95 237 0.0 0.0 0.00 0.00 0.00 60 1016.2
20260906173122 95 320 0.0 0.0 0.00 0.00 0.00 58 1016.4
20260906172621 95 227 0.0 0.0 0.00 0.00 0.00 58 1016.4
20260906172117 95 217 0.0 0.0 0.00 0.00 0.00 59 1016.4
20260906171616 97 295 0.0 0.9 0.00 0.00 0.00 57 1016.7
20260906171113 96 230 0.0 0.0 0.00 0.00 0.00 58 1016.5
20260906170609 95 291 0.0 0.0 0.00 0.00 0.00 57 1016.7
20260906170108 96 256 0.0 0.0 0.00 0.00 0.00 58 1016.8
20260906165604 96 243 0.0 0.0 0.00 0.00 0.00 58 1016.9
20260906165059 95 265 0.0 0.0 0.00 0.00 0.00 60 1017.0
20260906164558 94 259 0.0 0.0 0.00 0.00 0.00 62 1017.0
20260906164054 92 240 0.0 0.0 0.00 0.00 0.00 62 1017.1
20260906163549 93 90 0.0 0.0 0.00 0.00 0.00 61 1017.1
20260906163045 93 35 0.0 0.0 0.00 0.00 0.00 63 1017.0
20260906162542 92 135 0.0 0.0 0.00 0.00 0.00 62 1017.1
20260906162037 91 123 0.0 0.0 0.00 0.00 0.00 64 1017.1
20260906161532 92 69 0.0 0.0 0.00 0.00 0.00 63 1016.8
20260906161031 92 75 0.0 0.0 0.00 0.00 0.00 64 1016.8
20260906160530 92 71 0.0 0.0 0.00 0.00 0.00 66 1017.0
20260906160029 92 79 0.0 0.0 0.00 0.00 0.00 64 1016.9
20260906155526 91 85 0.0 0.0 0.00 0.00 0.00 65 1017.0
20260906155023 92 221 0.0 0.0 0.00 0.00 0.00 63 1017.0
20260906154518 93 60 0.0 0.0 0.00 0.00 0.00 65 1016.8
20260906154016 92 63 0.0 0.0 0.00 0.00 0.00 66 1016.9
20260906153516 91 59 0.0 0.0 0.00 0.00 0.00 67 1016.4
20260906153011 90 55 0.0 0.0 0.00 0.00 0.00 69 1016.7
20260906152505 90 58 0.0 0.0 0.00 0.00 0.00 69 1016.5
20260906152004 90 59 0.0 0.0 0.00 0.00 0.00 70 1016.4
20260906151500 89 59 0.0 0.0 0.00 0.00 0.00 70 1016.4
20260906150955 89 59 0.0 0.0 0.00 0.00 0.00 70 1016.8
20260906150450 88 59 0.0 0.0 0.00 0.00 0.00 71 1016.4
20260906145950 87 59 0.0 0.0 0.00 0.00 0.00 73 1016.5
20260906145450 86 59 0.0 0.0 0.00 0.00 0.00 75 1016.8
20260906144944 86 59 0.0 0.0 0.00 0.00 0.00 75 1016.4
20260906144439 86 160 0.0 0.0 0.00 0.00 0.00 75 1016.5
20260906143934 84 63 0.0 0.0 0.00 0.00 0.00 77 1016.4
20260906143430 84 107 0.0 0.0 0.00 0.00 0.00 77 1016.7
20260906142925 83 137 0.0 0.0 0.00 0.00 0.00 79 1016.8
20260906142425 83 116 0.0 0.0 0.00 0.00 0.00 80 1016.7
20260906141920 82 77 0.0 0.0 0.00 0.00 0.00 80 1016.8
20260906141414 82 65 0.0 0.0 0.00 0.00 0.00 80 1016.8
20260906140908 81 85 0.0 0.0 0.00 0.00 0.00 83 1016.5
20260906140403 81 72 0.0 0.0 0.00 0.00 0.00 84 1016.5
20260906135901 80 64 0.0 0.0 0.00 0.00 0.00 85 1016.8
20260906135400 80 66 0.0 0.0 0.00 0.00 0.00 86 1016.8
20260906134856 79 63 0.0 0.0 0.00 0.00 0.00 86 1016.7
20260906134351 79 65 0.0 0.0 0.00 0.00 0.00 86 1016.8
20260906133846 79 68 0.0 0.0 0.00 0.00 0.00 87 1016.7
20260906133342 78 69 0.0 0.0 0.00 0.00 0.00 87 1016.4
20260906132837 78 63 0.0 0.0 0.00 0.00 0.00 89 1016.4
20260906132332 77 65 0.0 0.0 0.00 0.00 0.00 89 1016.4
20260906131828 77 65 0.0 0.0 0.00 0.00 0.00 90 1016.3
20260906131323 77 64 0.0 0.0 0.00 0.00 0.00 90 1016.2
20260906130819 77 64 0.0 0.0 0.00 0.00 0.00 90 1016.3
20260906130313 76 73 0.0 0.0 0.00 0.00 0.00 91 1016.3
20260906125812 76 74 0.0 0.0 0.00 0.00 0.00 91 1016.1
20260906125309 75 74 0.0 0.0 0.00 0.00 0.00 91 1016.0
20260906124804 75 78 0.0 0.0 0.00 0.00 0.00 92 1015.7
20260906124300 75 86 0.0 0.0 0.00 0.00 0.00 93 1015.8
20260906123759 75 200 0.0 0.0 0.00 0.00 0.00 93 1015.8
20260906123254 75 200 0.0 0.0 0.00 0.00 0.00 93 1015.8
20260906122754 75 200 0.0 0.0 0.00 0.00 0.00 93 1015.9
20260906122249 75 200 0.0 0.0 0.00 0.00 0.00 93 1015.7
20260906121745 74 200 0.0 0.0 0.00 0.00 0.00 93 1015.8
20260906121242 74 200 0.0 0.0 0.00 0.00 0.00 93 1015.8
20260906120737 74 200 0.0 0.0 0.00 0.00 0.00 93 1015.7
20260906120234 74 200 0.0 0.0 0.00 0.00 0.00 93 1015.4
20260906115729 74 200 0.0 0.0 0.00 0.00 0.00 93 1015.4
20260906115224 74 200 0.0 0.0 0.00 0.00 0.00 93 1015.4
20260906114723 74 200 0.0 0.0 0.00 0.00 0.00 94 1015.4
20260906114218 73 200 0.0 0.0 0.00 0.00 0.00 94 1015.2
20260906113713 74 200 0.0 0.0 0.00 0.00 0.00 94 1015.5
20260906113212 74 200 0.0 0.0 0.00 0.00 0.00 94 1015.3
20260906112707 74 200 0.0 0.0 0.00 0.00 0.00 94 1015.5
20260906112204 74 200 0.0 0.0 0.00 0.00 0.00 93 1015.4
20260906111703 74 200 0.0 0.0 0.00 0.00 0.00 93 1015.3
20260906111158 74 200 0.0 0.0 0.00 0.00 0.00 93 1015.4
20260906110653 74 200 0.0 0.0 0.00 0.00 0.00 93 1015.1
20260906110148 74 200 0.0 0.0 0.00 0.00 0.00 92 1015.2
20260906105648 75 200 0.0 0.0 0.00 0.00 0.00 92 1015.1
20260906105144 74 200 0.0 0.0 0.00 0.00 0.00 91 1015.2
20260906104643 75 200 0.0 0.0 0.00 0.00 0.00 91 1015.0
20260906104137 75 200 0.0 0.0 0.00 0.00 0.00 90 1015.3
20260906103635 75 200 0.0 0.0 0.00 0.00 0.00 90 1015.2
20260906103131 75 200 0.0 0.0 0.00 0.00 0.00 89 1015.2
20260906102626 75 200 0.0 0.0 0.00 0.00 0.00 90 1015.0
20260906102120 75 200 0.0 0.0 0.00 0.00 0.00 89 1014.9
20260906101615 75 200 0.0 0.0 0.00 0.00 0.00 89 1015.0
20260906101115 75 200 0.0 0.0 0.00 0.00 0.00 89 1015.2
20260906100610 75 200 0.0 0.0 0.00 0.00 0.00 89 1015.0
20260906100110 76 200 0.0 0.0 0.00 0.00 0.00 90 1015.0
20260906095610 76 200 0.0 0.0 0.00 0.00 0.00 89 1014.8
20260906095106 76 200 0.0 0.0 0.00 0.00 0.00 87 1014.9
20260906094604 76 200 0.0 0.0 0.00 0.00 0.00 87 1014.9
20260906094101 76 200 0.0 0.0 0.00 0.00 0.00 87 1015.0
20260906093556 76 200 0.0 0.0 0.00 0.00 0.00 87 1015.0
20260906093051 76 200 0.0 0.0 0.00 0.00 0.00 87 1014.9
20260906092546 76 200 0.0 0.0 0.00 0.00 0.00 87 1014.9
20260906092041 76 200 0.0 0.0 0.00 0.00 0.00 86 1014.9
20260906091537 76 200 0.0 0.0 0.00 0.00 0.00 86 1014.7
20260906091033 76 200 0.0 0.0 0.00 0.00 0.00 86 1014.8
20260906090528 77 200 0.0 0.0 0.00 0.00 0.00 87 1014.7
20260906090023 77 200 0.0 0.0 0.00 0.00 0.00 86 1014.8
20260906085521 77 200 0.0 0.0 0.00 0.00 0.00 86 1014.9
20260906085021 77 200 0.0 0.0 0.00 0.00 0.00 86 1014.5
20260906084516 77 200 0.0 0.0 0.00 0.00 0.00 86 1014.4
20260906084014 77 200 0.0 0.0 0.00 0.00 0.00 86 1014.6
20260906083511 77 200 0.0 0.0 0.00 0.00 0.00 86 1014.6
20260906083010 77 200 0.0 0.0 0.00 0.00 0.00 85 1014.6
20260906082505 77 200 0.0 0.0 0.00 0.00 0.00 86 1014.6
20260906082001 77 200 0.0 0.0 0.00 0.00 0.00 85 1014.5
20260906081456 77 200 0.0 0.0 0.00 0.00 0.00 84 1014.6
20260906080952 77 200 0.0 0.0 0.00 0.00 0.00 85 1014.6
20260906080448 77 200 0.0 0.0 0.00 0.00 0.00 85 1014.4
20260906075942 77 200 0.0 0.0 0.00 0.00 0.00 84 1014.6
20260906075437 78 200 0.0 0.0 0.00 0.00 0.00 84 1014.4
20260906074932 78 200 0.0 0.0 0.00 0.00 0.00 83 1014.3
20260906074427 79 200 0.0 0.0 0.00 0.00 0.00 82 1014.4
20260906073926 79 200 0.0 0.0 0.00 0.00 0.00 82 1014.5
20260906073421 79 200 0.0 0.0 0.00 0.00 0.00 80 1014.5
20260906072917 79 200 0.0 0.0 0.00 0.00 0.00 80 1014.4
20260906072412 79 200 0.0 0.0 0.00 0.00 0.00 80 1014.6
20260906071908 79 201 0.0 0.0 0.00 0.00 0.00 81 1014.6
20260906071404 79 201 0.0 0.0 0.00 0.00 0.00 80 1014.5
20260906070859 79 201 0.0 0.0 0.00 0.00 0.00 81 1014.8
20260906070355 79 200 0.0 0.0 0.00 0.00 0.00 81 1014.8
20260906065850 79 200 0.0 0.0 0.00 0.00 0.00 81 1014.8
20260906065344 79 200 0.0 0.0 0.00 0.00 0.00 82 1015.0
20260906064840 79 200 0.0 0.0 0.00 0.00 0.00 82 1014.8
20260906064337 79 200 0.0 0.0 0.00 0.00 0.00 81 1014.9
20260906063831 79 199 0.0 0.0 0.00 0.00 0.00 80 1014.9
20260906063326 80 199 0.0 0.0 0.00 0.00 0.00 80 1015.0
20260906062821 80 199 0.0 0.0 0.00 0.00 0.00 79 1014.8
20260906062320 80 199 0.0 0.0 0.00 0.00 0.00 78 1014.9
20260906061816 81 199 0.0 0.0 0.00 0.00 0.00 77 1014.7
20260906061313 81 199 0.0 0.0 0.00 0.00 0.00 77 1015.0
20260906060812 81 199 0.0 0.0 0.00 0.00 0.00 77 1014.9
20260906060311 81 199 0.0 0.0 0.00 0.00 0.00 78 1015.0
20260906055806 81 199 0.0 0.0 0.00 0.00 0.00 78 1015.1
20260906055301 80 199 0.0 0.0 0.00 0.00 0.00 78 1015.1
20260906054756 80 199 0.0 0.0 0.00 0.00 0.00 78 1014.9
20260906054252 81 199 0.0 0.0 0.00 0.00 0.00 78 1014.8
20260906053748 81 199 0.0 0.0 0.00 0.00 0.00 78 1014.8
20260906053244 81 199 0.0 0.0 0.00 0.00 0.00 78 1015.2
20260906052738 81 199 0.0 0.0 0.00 0.00 0.00 78 1015.0
20260906052235 81 199 0.0 0.0 0.00 0.00 0.00 77 1015.1
20260906051731 81 199 0.0 0.0 0.00 0.00 0.00 77 1015.0
20260906051231 81 199 0.0 0.0 0.00 0.00 0.00 77 1014.9
20260906050726 81 199 0.0 0.0 0.00 0.00 0.00 77 1015.0
20260906050216 82 199 0.0 0.0 0.00 0.00 0.00 77 1015.1
20260906045714 82 199 0.0 0.0 0.00 0.00 0.00 76 1015.1
20260906045209 82 199 0.0 0.0 0.00 0.00 0.00 76 1015.0
20260906044705 82 199 0.0 0.0 0.00 0.00 0.00 76 1015.0
20260906044200 82 199 0.0 0.0 0.00 0.00 0.00 77 1015.0
20260906043656 82 198 0.0 0.0 0.00 0.00 0.00 77 1014.9
20260906043152 82 198 0.0 0.0 0.00 0.00 0.00 77 1015.1
20260906042651 81 197 0.0 0.0 0.00 0.00 0.00 78 1015.0
20260906042145 81 197 0.0 0.0 0.00 0.00 0.00 79 1014.8
20260906041641 81 197 0.0 0.0 0.00 0.00 0.00 79 1015.0
20260906041136 81 184 0.0 0.0 0.00 0.00 0.00 79 1015.1
20260906040631 81 135 0.0 0.0 0.00 0.00 0.00 79 1014.9
20260906040127 82 135 0.0 0.0 0.00 0.00 0.00 78 1014.8
20260906035622 82 135 0.0 0.0 0.00 0.00 0.00 78 1014.8
20260906035117 82 135 0.0 0.0 0.00 0.00 0.00 79 1014.8
20260906034612 82 135 0.0 0.0 0.00 0.00 0.00 79 1014.8
20260906034107 82 135 0.0 0.0 0.00 0.00 0.00 79 1014.7
20260906033602 81 135 0.0 0.0 0.00 0.00 0.00 80 1014.7
20260906033057 81 135 0.0 0.0 0.00 0.00 0.00 81 1014.6
20260906032554 81 135 0.0 0.0 0.00 0.00 0.00 81 1014.6
20260906032053 80 135 0.0 0.0 0.00 0.00 0.00 82 1014.4
20260906031549 80 135 0.0 0.0 0.00 0.00 0.00 83 1014.6
20260906031045 80 135 0.0 0.0 0.00 0.00 0.00 83 1014.6
20260906030544 81 135 0.0 0.0 0.00 0.00 0.00 82 1014.5
20260906030043 81 135 0.0 0.0 0.00 0.00 0.00 83 1014.3
20260906025538 81 135 0.0 0.0 0.00 0.00 0.00 82 1014.4
20260906025036 81 135 0.0 0.0 0.00 0.00 0.00 82 1014.1
20260906024532 81 135 0.0 0.0 0.00 0.00 0.00 82 1014.3
20260906024031 81 135 0.0 0.0 0.00 0.00 0.00 82 1014.1
20260906023528 81 135 0.0 0.0 0.00 0.00 0.00 82 1013.9
20260906023023 82 135 0.0 0.0 0.00 0.00 0.00 82 1013.8
20260906022518 81 135 0.0 0.0 0.00 0.00 0.00 83 1014.0
20260906022013 80 179 0.0 0.0 0.00 0.00 0.00 84 1013.5
20260906021508 80 180 0.0 0.0 0.00 0.00 0.00 83 1013.5
20260906021002 81 180 0.0 0.0 0.00 0.00 0.00 83 1013.8
20260906020456 81 180 0.0 0.0 0.00 0.00 0.00 83 1013.8
20260906015955 81 180 0.0 0.0 0.00 0.00 0.00 82 1013.7
20260906015450 81 180 0.0 0.0 0.00 0.00 0.00 82 1013.4
20260906014950 82 180 0.0 0.0 0.00 0.00 0.00 82 1013.5
20260906014449 82 180 0.0 0.0 0.00 0.00 0.00 81 1013.5
20260906013946 82 180 0.0 0.0 0.00 0.00 0.00 81 1013.2
20260906013441 82 179 0.0 0.0 0.00 0.00 0.00 81 1013.3
20260906012936 83 179 0.0 0.0 0.00 0.00 0.00 80 1013.2
20260906012431 83 179 0.0 0.0 0.00 0.00 0.00 80 1013.0
20260906011930 83 180 0.0 0.0 0.00 0.00 0.00 79 1013.1
20260906011426 83 180 0.0 0.0 0.00 0.00 0.00 79 1013.2
20260906010921 84 179 0.0 0.0 0.00 0.00 0.00 78 1013.2
20260906010417 84 180 0.0 0.0 0.00 0.00 0.00 78 1013.0
20260906005913 84 179 0.0 0.0 0.00 0.00 0.00 78 1013.1
20260906005412 85 179 0.0 0.0 0.00 0.00 0.00 77 1013.0
20260906004910 85 179 0.0 0.0 0.00 0.00 0.00 77 1013.0
20260906004405 86 179 0.0 0.0 0.00 0.00 0.00 77 1013.0
20260906003901 86 179 0.0 0.0 0.00 0.00 0.00 76 1013.0
20260906003356 86 179 0.0 0.0 0.00 0.00 0.00 75 1013.0
20260906002851 87 179 0.0 0.0 0.00 0.00 0.00 75 1013.1
20260906002350 87 179 0.0 0.0 0.00 0.00 0.00 74 1013.1
20260906001846 87 179 0.0 0.0 0.00 0.00 0.00 73 1013.1
20260906001342 88 179 0.0 0.0 0.00 0.00 0.00 73 1013.0
20260906000836 88 178 0.0 0.0 0.00 0.00 0.00 72 1013.0
20260906000333 89 178 0.0 0.0 0.00 0.00 0.00 72 1013.1
20260905235831 89 179 0.0 0.0 0.00 0.00 0.00 71 1013.0
20260905235326 90 136 0.0 0.0 0.00 0.00 0.00 70 1012.9
20260905234821 89 134 0.0 0.0 0.00 0.00 0.00 69 1012.9
20260905234316 90 141 0.0 0.0 0.00 0.00 0.00 69 1013.0
20260905233811 91 192 0.0 0.0 0.00 0.00 0.00 68 1013.1
20260905233306 91 192 0.0 0.0 0.00 0.00 0.00 67 1013.1
20260905232805 91 193 0.0 0.0 0.00 0.00 0.00 68 1012.8
20260905232305 91 193 0.0 0.0 0.00 0.00 0.00 67 1012.8
20260905231757 92 193 0.0 0.0 0.00 0.00 0.00 66 1013.0
20260905231252 92 193 0.0 0.0 0.00 0.00 0.00 64 1013.0
20260905230748 93 192 0.0 0.0 0.00 0.00 0.00 62 1012.9
20260905230246 94 193 0.0 0.0 0.00 0.00 0.00 59 1012.9
20260905225745 95 192 0.0 0.0 0.00 0.00 0.00 59 1012.9
20260905225241 95 106 0.0 0.0 0.00 0.00 0.00 57 1013.1
20260905224739 96 249 0.0 0.0 0.00 0.00 0.00 54 1012.8
20260905224236 97 251 0.0 0.0 0.00 0.00 0.00 51 1012.9
20260905223731 98 251 0.0 0.0 0.00 0.00 0.00 46 1012.8
20260905223228 97 251 0.0 0.0 0.00 0.00 0.00 48 1012.8
20260905222724 97 189 0.0 0.0 0.00 0.00 0.00 47 1012.8
20260905222223 98 184 0.0 0.0 0.00 0.00 0.00 46 1012.9
20260905221719 99 185 0.0 0.0 0.00 0.00 0.00 45 1013.1
20260905221216 99 159 0.0 0.0 0.00 0.00 0.00 46 1013.0
20260905220711 100 196 0.0 0.0 0.00 0.00 0.00 46 1013.0
20260905220207 100 265 0.0 0.0 0.00 0.00 0.00 40 1012.9
20260905215706 99 245 0.0 0.0 0.00 0.00 0.00 43 1012.8
20260905215202 98 318 0.0 0.0 0.00 0.00 0.00 44 1013.0
20260905214658 98 279 0.0 0.0 0.00 0.00 0.00 45 1013.0
20260905214153 98 186 0.0 0.0 0.00 0.00 0.00 49 1013.3
20260905213648 98 302 0.0 0.0 0.00 0.00 0.00 45 1013.4
20260905213144 100 60 0.0 0.0 0.00 0.00 0.00 48 1013.4
20260905212639 101 218 0.0 0.0 0.00 0.00 0.00 46 1013.3
20260905212138 102 204 0.0 0.0 0.00 0.00 0.00 42 1013.3
20260905211633 100 234 0.0 0.0 0.00 0.00 0.00 44 1013.9
20260905211128 99 8 0.0 0.0 0.00 0.00 0.00 46 1013.4
20260905210625 98 232 0.0 0.0 0.00 0.00 0.00 46 1013.5
20260905210119 99 213 0.0 0.0 0.00 0.00 0.00 47 1013.5
20260905205619 99 347 0.0 0.9 0.00 0.00 0.00 44 1013.5
20260905205118 101 228 0.0 0.0 0.00 0.00 0.00 43 1013.8
20260905204618 101 262 0.0 0.0 0.00 0.00 0.00 41 1013.9
20260905204113 100 197 0.0 0.0 0.00 0.00 0.00 45 1013.8
20260905203608 100 229 0.0 0.0 0.00 0.00 0.00 45 1013.9
20260905203103 100 240 0.0 0.0 0.00 0.00 0.00 43 1013.9
20260905202558 99 197 0.0 0.0 0.00 0.00 0.00 47 1014.3
20260905202054 100 26 0.0 0.0 0.00 0.00 0.00 48 1014.1
20260905201549 100 219 0.0 0.0 0.00 0.00 0.00 47 1014.2
20260905201049 98 226 0.0 0.0 0.00 0.00 0.00 47 1014.4
20260905200544 100 171 0.0 0.0 0.00 0.00 0.00 47 1014.5
20260905200038 100 284 0.0 0.0 0.00 0.00 0.00 42 1014.6
20260905195532 101 234 0.0 0.0 0.00 0.00 0.00 42 1014.5
20260905195027 101 286 0.9 1.7 0.00 0.00 0.00 42 1014.6
20260905194522 102 265 0.0 0.0 0.00 0.00 0.00 44 1014.5
20260905194021 101 207 0.0 0.0 0.00 0.00 0.00 43 1014.8
20260905193516 102 302 0.0 0.0 0.00 0.00 0.00 43 1014.7
20260905193011 102 197 0.0 0.9 0.00 0.00 0.00 44 1015.0
20260905192506 100 307 0.0 0.0 0.00 0.00 0.00 42 1014.8
20260905192003 100 230 0.0 0.0 0.00 0.00 0.00 45 1014.8
20260905191501 102 311 0.0 0.0 0.00 0.00 0.00 42 1015.0
20260905191000 101 344 0.0 0.0 0.00 0.00 0.00 43 1014.8
20260905190458 100 185 0.0 0.0 0.00 0.00 0.00 48 1015.1
20260905185957 99 21 0.0 0.0 0.00 0.00 0.00 45 1015.1
20260905185453 100 280 0.0 0.0 0.00 0.00 0.00 45 1015.0
20260905184951 99 44 0.0 0.0 0.00 0.00 0.00 46 1015.0
20260905184446 99 162 0.0 0.0 0.00 0.00 0.00 46 1014.9
20260905183945 100 51 0.0 0.9 0.00 0.00 0.00 44 1015.0
20260905183439 100 224 0.0 0.0 0.00 0.00 0.00 47 1015.2
20260905182935 100 246 0.9 2.6 0.00 0.00 0.00 46 1015.4
20260905182434 99 290 0.0 0.0 0.00 0.00 0.00 45 1015.3
20260905181929 99 275 0.9 0.9 0.00 0.00 0.00 47 1015.5
20260905181429 101 45 0.0 0.0 0.00 0.00 0.00 45 1015.4
20260905180928 101 245 0.0 0.0 0.00 0.00 0.00 44 1015.6
20260905180423 100 266 0.0 0.0 0.00 0.00 0.00 46 1015.6
20260905175918 100 225 0.0 0.0 0.00 0.00 0.00 49 1015.7